Location: Eindhoven
(51.4416°N, 5.4697°E)
Time: 06:39:02
(UTC+01:00)

Transit 2A Rocket - All Passes

Search period start: 17 November 2019 00:00
Search period end: 27 November 2019 00:00
Orbit: 594 x 909 km, 66.7° (Epoch: 16 November)

Date Brightness Start Highest point End Pass type
(mag) Time Alt. Az. Time Alt. Az. Time Alt. Az.
17 Nov - 00:02:23 10° WSW 00:06:54 49° NW 00:11:11 10° NNE night (unlit)
17 Nov - 01:47:42 10° WNW 01:50:26 16° NNW 01:53:07 10° NNE night (unlit)
17 Nov - 03:33:32 10° NNW 03:34:51 11° N 03:36:10 10° NNE visible
17 Nov - 05:15:45 10° NNW 05:19:04 21° NNE 05:22:25 10° E visible
17 Nov - 06:57:51 10° NW 07:02:12 87° NE 07:06:41 10° SE visible
17 Nov - 08:41:46 10° WNW 08:44:08 14° WSW 08:46:31 10° SW daylight
17 Nov - 21:39:08 10° SSE 21:42:14 18° ESE 21:45:14 10° ENE night (unlit)
17 Nov - 23:19:36 10° SW 23:24:18 77° NW 23:28:43 10° NE night (unlit)
18 Nov - 01:04:10 10° WNW 01:07:30 20° NNW 01:10:45 10° NNE night (unlit)
18 Nov - 02:50:29 10° NNW 02:51:46 11° N 02:53:02 10° NNE visible
18 Nov - 04:33:24 10° NNW 04:36:09 16° NNE 04:38:56 10° ENE visible
18 Nov - 06:15:22 10° NNW 06:19:38 55° NE 06:24:00 10° SE visible
18 Nov - 07:58:22 10° WNW 08:01:52 24° WSW 08:05:29 10° SSW daylight
18 Nov - 20:59:40 10° ESE 21:00:01 10° ESE 21:00:24 10° ESE night (unlit)
18 Nov - 22:37:07 10° SSW 22:41:47 66° SE 22:46:10 10° NE night (unlit)
19 Nov - 00:20:48 10° W 00:24:40 27° NW 00:28:24 10° NNE night (unlit)
19 Nov - 02:07:00 10° NNW 02:08:41 12° N 02:10:22 10° NNE night (unlit)
19 Nov - 03:51:00 10° NNW 03:53:10 13° NNE 03:55:20 10° NE visible
19 Nov - 05:32:56 10° NNW 05:36:57 36° NE 05:41:03 10° ESE visible
19 Nov - 07:15:28 10° NW 07:19:31 40° WSW 07:23:44 10° S visible
19 Nov - 21:54:58 10° S 21:59:21 39° ESE 22:03:29 10° NE night (unlit)
19 Nov - 23:37:38 10° WSW 23:41:55 37° NW 23:46:01 10° NNE night (unlit)
20 Nov - 01:23:22 10° NW 01:25:39 14° NNW 01:27:55 10° NNE night (unlit)
20 Nov - 03:08:33 10° NNW 03:10:08 12° N 03:11:42 10° NNE visible
20 Nov - 04:50:33 10° NNW 04:54:12 25° NE 04:57:52 10° E visible
20 Nov - 06:32:47 10° NW 06:37:06 68° SW 06:41:34 10° SSE visible
20 Nov - 21:13:14 10° SSE 21:17:00 24° ESE 21:20:35 10° ENE night (unlit)
20 Nov - 22:54:41 10° SW 22:59:15 57° NW 23:03:35 10° NNE night (unlit)
21 Nov - 00:39:46 10° WNW 00:42:41 17° NNW 00:45:33 10° NNE night (unlit)
21 Nov - 02:25:49 10° NNW 02:27:03 11° N 02:28:16 10° NNE night (unlit)
21 Nov - 04:08:12 10° NNW 04:11:20 19° NNE 04:14:30 10° ENE visible
21 Nov - 05:50:14 10° NW 05:54:34 75° NE 05:59:04 10° SE visible
21 Nov - 07:33:43 10° WNW 07:36:38 17° WSW 07:39:35 10° SSW daylight
21 Nov - 20:32:12 10° SE 20:34:43 15° ESE 20:37:12 10° ENE night (unlit)
21 Nov - 22:12:01 10° SW 22:16:41 90° NE 22:21:06 10° NE night (unlit)
21 Nov - 23:56:16 10° W 23:59:47 22° NNW 00:03:11 10° NNE night (unlit)
22 Nov - 01:42:36 10° NNW 01:43:58 11° N 01:45:19 10° NNE night (unlit)
22 Nov - 03:25:50 10° NNW 03:28:24 15° NNE 03:30:58 10° ENE visible
22 Nov - 05:07:46 10° NNW 05:11:58 47° NE 05:16:18 10° ESE visible
22 Nov - 06:50:34 10° WNW 06:54:20 29° WSW 06:58:14 10° S visible
22 Nov - 21:29:38 10° SSW 21:34:12 55° ESE 21:38:30 10° NE night (unlit)
22 Nov - 23:12:58 10° W 23:16:58 29° NW 23:20:50 10° NNE night (unlit)
23 Nov - 00:59:02 10° NW 01:00:54 12° NNW 01:02:45 10° NNE night (unlit)
23 Nov - 02:43:26 10° NNW 02:45:23 13° NNE 02:47:21 10° NE night (unlit)
23 Nov - 04:25:22 10° NNW 04:29:16 32° NE 04:33:16 10° ESE visible
23 Nov - 06:07:46 10° NW 06:11:57 48° WSW 06:16:19 10° SSE visible
23 Nov - 20:47:37 10° S 20:51:47 33° ESE 20:55:46 10° NE night (unlit)
23 Nov - 22:29:53 10° WSW 22:34:15 43° NW 22:38:25 10° NNE night (unlit)
24 Nov - 00:15:24 10° NW 00:17:53 15° NNW 00:20:20 10° NNE night (unlit)
24 Nov - 02:00:55 10° NNW 02:02:20 11° N 02:03:44 10° NNE night (unlit)
24 Nov - 03:42:59 10° NNW 03:46:28 23° NNE 03:50:01 10° E visible
24 Nov - 05:25:08 10° NW 05:29:29 81° SW 05:34:02 10° SSE visible
24 Nov - 07:09:33 10° W 07:11:20 12° WSW 07:13:09 10° SW visible
24 Nov - 20:06:05 10° SSE 20:09:28 20° ESE 20:12:44 10° ENE night (unlit)
24 Nov - 21:47:01 10° SW 21:51:37 67° NW 21:55:59 10° NE night (unlit)
24 Nov - 23:31:49 10° WNW 23:34:56 18° NNW 23:37:59 10° NNE night (unlit)
25 Nov - 01:18:03 10° NNW 01:19:14 11° N 01:20:27 10° NNE night (unlit)
25 Nov - 03:00:38 10° NNW 03:03:35 18° NNE 03:06:34 10° ENE visible
25 Nov - 04:42:37 10° NW 04:46:57 63° NE 04:51:26 10° SE visible
25 Nov - 06:25:49 10° WNW 06:29:06 21° WSW 06:32:30 10° SSW visible
25 Nov - 19:25:32 10° SE 19:27:14 12° ESE 19:28:55 10° E night (unlit)
25 Nov - 21:04:28 10° SSW 21:09:05 77° SE 21:13:27 10° NE night (unlit)
25 Nov - 22:48:24 10° W 22:52:03 24° NNW 22:55:37 10° NNE night (unlit)
26 Nov - 00:34:40 10° NNW 00:36:10 11° N 00:37:39 10° NNE night (unlit)
26 Nov - 02:18:16 10° NNW 02:20:37 14° NNE 02:23:00 10° NE night (unlit)
26 Nov - 04:00:11 10° NNW 04:04:18 41° NE 04:08:33 10° ESE visible
26 Nov - 05:42:49 10° NW 05:46:47 34° WSW 05:50:55 10° S visible
26 Nov - 20:22:11 10° SSW 20:26:37 46° ESE 20:30:50 10° NE night (unlit)
26 Nov - 22:05:10 10° WSW 22:09:16 33° NW 22:13:15 10° NNE night (unlit)
26 Nov - 23:51:04 10° NW 23:53:07 13° NNW 23:55:09 10° NNE night (unlit)
